This is the latest recevied weather packets stored in our database for station/object N5PA. If no packets are shown the sender has not sent any weather packets the latest 10 day(s).
| Time | Temp. | Humidity | Pressure | Rain* | Wind** | Luminosity | Snow |
|---|---|---|---|---|---|---|---|
| 1777824906 | 21.11° C | 40% | 1023 hPa | 0 mm | - | 1018 W/m² | - |
| 1777824607 | 21.11° C | 42% | 1023 hPa | 0 mm | - | 1018 W/m² | - |
| 1777824306 | 21.11° C | 43% | 1023.1 hPa | 0 mm | - | 1014 W/m² | - |
| 1777824006 | 20.56° C | 44% | 1023.1 hPa | 0 mm | - | 1014 W/m² | - |
| 1777823706 | 20.56° C | 45% | 1023.2 hPa | 0 mm | - | 1016 W/m² | - |
| 1777823406 | 20.56° C | 42% | 1023.3 hPa | 0 mm | - | 1018 W/m² | - |
| 1777823107 | 21.11° C | 43% | 1023.3 hPa | 0 mm | - | 1016 W/m² | - |
| 1777822807 | 21.11° C | 47% | 1023.3 hPa | 0 mm | - | 1016 W/m² | - |
| 1777822506 | 20.56° C | 47% | 1023.3 hPa | 0 mm | - | 1013 W/m² | - |
| 1777822207 | 20° C | 49% | 1023.4 hPa | 0 mm | - | 1016 W/m² | - |
| 1777821906 | 20° C | 48% | 1023.4 hPa | 0 mm | - | 1018 W/m² | - |
| 1777821605 | 20° C | 49% | 1023.4 hPa | 0 mm | - | 1016 W/m² | - |
| 1777821305 | 20° C | 52% | 1023.5 hPa | 0 mm | - | 1016 W/m² | - |
| 1777821007 | 20° C | 50% | 1023.5 hPa | 0 mm | - | 1013 W/m² | - |
| 1777820707 | 19.44° C | 50% | 1023.5 hPa | 0 mm | - | 1013 W/m² | - |
| 1777820407 | 19.44° C | 53% | 1023.4 hPa | 0 mm | - | 1011 W/m² | - |
| 1777820107 | 18.89° C | 54% | 1023.3 hPa | 0 mm | - | 1011 W/m² | - |
| 1777819806 | 18.89° C | 59% | 1023.4 hPa | 0 mm | - | 1013 W/m² | - |
| 1777819506 | 18.89° C | 58% | 1023.3 hPa | 0 mm | - | 1013 W/m² | - |
| 1777819206 | 18.33° C | 59% | 1023.3 hPa | 0 mm | - | 1011 W/m² | - |
| 1777818906 | 18.33° C | 61% | 1023.2 hPa | 0 mm | - | 1011 W/m² | - |
| 1777818606 | 17.78° C | 63% | 1023.2 hPa | 0 mm | - | 1013 W/m² | - |
| 1777818306 | 17.78° C | 65% | 1023.1 hPa | 0 mm | - | 1014 W/m² | - |
| 1777818006 | 17.22° C | 65% | 1023 hPa | 0 mm | - | 1013 W/m² | - |
| 1777817706 | 17.22° C | 66% | 1023 hPa | 0 mm | - | 1020 W/m² | - |
* Rain latest hour (hover to see other rain measurements)
** Current wind speed in m/s (hover to see current wind gust speed)